INTELSAT 18 (IS-18)

Last updated on May 21, 2019, 3:10 a.m. UTC

1 37834U 11056A   19140.13052392  .00000043  00000-0  00000+0 0  9994
2 37834   0.0161 321.1392 0003022 116.9610  26.3738  1.00271247 27931
UTC
Height (km)
Latitude
Longitude
Inclination
Orbital Period
UTC large
Height (km)
Speed (km/s)
/
Latitude / Longitude
Inclination (degrees)
Orbital Period (minutes)
Azimuth
Elevation
Range (km)
Doppler Factor
iOS Compass Heading
iOS Angle

Next 30 passes for location: Hong Kong

Rise time Rise Azimuth (degrees) Set time Set Azimuth (degrees) Duration Max altitude (degrees)

No matching passes for this satellites